Radiation Dose at Monitoring Post of Fukushima Daini Nuclear Power Station
Date,Time,MP-1(microSv/h),MP-2(microSv/h),MP-3(microSv/h),MP-4(microSv/h),MP-5(microSv/h),MP-6(microSv/h),MP-7(microSv/h),Wind Direction,Wind Velocity(m/s),Rain
2017/09/14,00:00,0.346,0.213,0.349,0.329,0.317,0.173,0.103,west,8.3,No
2017/09/14,00:10,0.349,0.213,0.347,0.325,0.317,0.173,0.102,west,7.6,No
2017/09/14,00:20,0.348,0.212,0.347,0.327,0.313,0.173,0.104,west,7.0,No
2017/09/14,00:30,0.347,0.213,0.348,0.327,0.318,0.173,0.104,west,8.3,No
2017/09/14,00:40,0.350,0.213,0.345,0.325,0.316,0.173,0.103,west,7.0,No
2017/09/14,00:50,0.346,0.213,0.348,0.328,0.313,0.172,0.104,west,6.1,No
2017/09/14,01:00,0.349,0.213,0.347,0.325,0.317,0.172,0.103,west-southwest,7.2,No
2017/09/14,01:10,0.347,0.213,0.346,0.325,0.314,0.172,0.104,west,7.6,No
2017/09/14,01:20,0.349,0.211,0.349,0.327,0.315,0.172,0.104,west,8.3,No
2017/09/14,01:30,0.348,0.214,0.348,0.324,0.317,0.172,0.103,west,6.2,No
2017/09/14,01:40,0.346,0.213,0.345,0.325,0.315,0.173,0.104,west,4.3,No
2017/09/14,01:50,0.349,0.212,0.349,0.326,0.314,0.173,0.103,west,6.9,No
2017/09/14,02:00,0.347,0.213,0.347,0.325,0.317,0.173,0.104,west,6.0,No
2017/09/14,02:10,0.348,0.211,0.345,0.327,0.315,0.171,0.104,west,5.9,No
2017/09/14,02:20,0.350,0.212,0.349,0.328,0.317,0.173,0.103,west,5.6,No
2017/09/14,02:30,0.345,0.213,0.347,0.324,0.318,0.171,0.104,west,4.6,No
2017/09/14,02:40,0.347,0.213,0.345,0.327,0.314,0.172,0.104,west,1.3,No
2017/09/14,02:50,0.349,0.213,0.350,0.327,0.319,0.172,0.104,west-northwest,1.5,No
2017/09/14,03:00,0.347,0.212,0.345,0.326,0.318,0.171,0.104,west,4.4,No
2017/09/14,03:10,0.351,0.214,0.349,0.329,0.315,0.172,0.103,west,6.6,No
2017/09/14,03:20,0.347,0.212,0.349,0.325,0.318,0.172,0.104,west,6.7,No
2017/09/14,03:30,0.350,0.214,0.344,0.328,0.315,0.173,0.104,west,5.9,No
2017/09/14,03:40,0.350,0.213,0.349,0.326,0.316,0.172,0.103,west,5.4,No
2017/09/14,03:50,0.347,0.214,0.348,0.326,0.315,0.173,0.104,west,4.5,No
2017/09/14,04:00,0.349,0.212,0.346,0.328,0.314,0.173,0.103,northwest,1.3,No
2017/09/14,04:10,0.348,0.212,0.350,0.325,0.318,0.172,0.104,northeast,1.1,No
2017/09/14,04:20,0.350,0.213,0.346,0.328,0.316,0.173,0.104,southeast,2.0,No
2017/09/14,04:30,0.348,0.212,0.349,0.327,0.314,0.172,0.103,east,0.8,No
2017/09/14,04:40,0.347,0.213,0.347,0.325,0.319,0.173,0.104,north-northwest,1.5,No
2017/09/14,04:50,0.351,0.211,0.346,0.328,0.315,0.172,0.103,northwest,3.1,No
2017/09/14,05:00,0.345,0.212,0.350,0.326,0.317,0.173,0.104,north-northwest,2.2,No
2017/09/14,05:10,0.350,0.212,0.346,0.326,0.317,0.173,0.104,northwest,1.1,No
2017/09/14,05:20,0.348,0.214,0.349,0.327,0.313,0.173,0.104,north-northwest,0.7,No
2017/09/14,05:30,0.347,0.212,0.348,0.326,0.318,0.172,0.104,west,0.9,No
2017/09/14,05:40,0.348,0.213,0.348,0.329,0.317,0.172,0.104,north-northwest,0.8,No
2017/09/14,05:50,0.346,0.212,0.349,0.325,0.316,0.173,0.104,northwest,2.5,No
2017/09/14,06:00,0.351,0.215,0.346,0.329,0.317,0.172,0.103,west-northwest,3.6,No
2017/09/14,06:10,0.346,0.212,0.350,0.326,0.314,0.173,0.104,west,4.0,No
2017/09/14,06:20,0.350,0.213,0.347,0.326,0.317,0.172,0.104,west-northwest,3.3,No
2017/09/14,06:30,0.348,0.213,0.349,0.328,0.315,0.174,0.103,northwest,2.5,No
2017/09/14,06:40,0.349,0.213,0.347,0.325,0.314,0.172,0.103,west-northwest,3.3,No
2017/09/14,06:50,0.350,0.214,0.346,0.327,0.318,0.173,0.104,northwest,2.0,No
2017/09/14,07:00,0.346,0.212,0.350,0.327,0.314,0.174,0.103,northwest,1.6,No
2017/09/14,07:10,0.348,0.213,0.347,0.324,0.313,0.171,0.104,west-northwest,1.6,No
2017/09/14,07:20,0.350,0.213,0.346,0.328,0.319,0.173,0.103,west,1.4,No
2017/09/14,07:30,0.345,0.213,0.350,0.327,0.315,0.173,0.103,west-northwest,1.5,No
2017/09/14,07:40,0.350,0.214,0.348,0.324,0.312,0.171,0.102,north,1.0,No
2017/09/14,07:50,0.349,0.213,0.346,0.325,0.315,0.172,0.103,east-northeast,2.3,No
2017/09/14,08:00,0.344,0.211,0.350,0.327,0.318,0.173,0.105,east-northeast,2.8,No
2017/09/14,08:10,0.347,0.213,0.348,0.327,0.315,0.171,0.104,northeast,2.7,No
2017/09/14,08:20,0.350,0.214,0.346,0.324,0.314,0.172,0.104,northeast,3.6,No
2017/09/14,08:30,0.346,0.212,0.352,0.326,0.315,0.174,0.107,north-northeast,4.0,No
2017/09/14,08:40,0.346,0.211,0.349,0.329,0.318,0.173,0.107,north-northeast,4.5,No
2017/09/14,08:50,0.351,0.214,0.346,0.327,0.315,0.173,0.118,north-northeast,3.4,No
2017/09/14,09:00,0.350,0.213,0.348,0.326,0.312,0.173,0.109,northeast,5.0,No
2017/09/14,09:10,0.346,0.212,0.350,0.324,0.317,0.172,0.103,northeast,4.8,No
2017/09/14,09:20,0.344,0.212,0.347,0.323,0.318,0.172,0.102,northeast,4.0,No
2017/09/14,09:30,0.350,0.212,0.345,0.323,0.318,0.171,0.103,east-northeast,3.5,No
2017/09/14,09:40,0.349,0.212,0.351,0.324,0.315,0.172,0.101,east-northeast,3.4,No
2017/09/14,09:50,0.349,0.211,0.349,0.325,0.314,0.171,0.100,east-northeast,2.5,No
2017/09/14,10:00,0.346,0.211,0.345,0.324,0.313,0.173,0.101,east-northeast,2.5,No
2017/09/14,10:10,0.346,0.212,0.346,0.327,0.312,0.174,0.103,east-northeast,2.7,No
2017/09/14,10:20,0.345,0.211,0.350,0.329,0.314,0.173,0.102,east-northeast,3.2,No
2017/09/14,10:30,0.346,0.211,0.349,0.328,0.313,0.173,0.102,east-northeast,2.7,No
2017/09/14,10:40,0.347,0.211,0.347,0.327,0.315,0.172,0.102,east,2.5,No
2017/09/14,10:50,0.347,0.213,0.344,0.327,0.314,0.173,0.102,east,2.2,No
2017/09/14,11:00,0.347,0.212,0.344,0.326,0.314,0.173,0.101,south-southeast,2.2,No
2017/09/14,11:10,0.349,0.212,0.346,0.326,0.314,0.173,0.101,east-southeast,2.6,No
2017/09/14,11:20,0.347,0.213,0.345,0.325,0.315,0.173,0.102,east-southeast,2.5,No
2017/09/14,11:30,0.346,0.212,0.347,0.325,0.314,0.173,0.102,southeast,2.2,No
2017/09/14,11:40,0.346,0.211,0.351,0.325,0.317,0.173,0.103,south-southeast,2.3,No
2017/09/14,11:50,0.347,0.212,0.350,0.325,0.320,0.174,0.102,southeast,2.4,No
2017/09/14,12:00,0.345,0.212,0.347,0.325,0.320,0.174,0.101,east-southeast,1.6,No
2017/09/14,12:10,0.348,0.213,0.346,0.324,0.317,0.174,0.102,southeast,2.3,No
2017/09/14,12:20,0.347,0.214,0.346,0.323,0.316,0.173,0.103,southeast,1.6,No
2017/09/14,12:30,0.351,0.214,0.350,0.325,0.316,0.173,0.103,southeast,1.5,No
2017/09/14,12:40,0.353,0.213,0.350,0.325,0.315,0.173,0.103,east-southeast,1.9,No
2017/09/14,12:50,0.349,0.213,0.349,0.325,0.316,0.173,0.104,southeast,2.0,No
2017/09/14,13:00,0.348,0.213,0.348,0.325,0.316,0.173,0.102,east-southeast,1.6,No
2017/09/14,13:10,0.345,0.211,0.348,0.327,0.316,0.172,0.102,southeast,1.6,No
2017/09/14,13:20,0.345,0.212,0.347,0.325,0.315,0.173,0.101,southeast,1.8,No
2017/09/14,13:30,0.348,0.210,0.347,0.330,0.313,0.174,0.102,east-southeast,2.1,No
2017/09/14,13:40,0.352,0.215,0.345,0.331,0.314,0.174,0.102,east-northeast,1.9,No
2017/09/14,13:50,0.350,0.214,0.352,0.330,0.314,0.173,0.102,east,1.1,No
2017/09/14,14:00,0.348,0.213,0.352,0.327,0.315,0.173,0.100,east-southeast,1.2,No
2017/09/14,14:10,0.346,0.212,0.349,0.325,0.320,0.173,0.099,southeast,1.3,No
2017/09/14,14:20,0.351,0.212,0.347,0.330,0.320,0.172,0.102,east,1.1,No
2017/09/14,14:30,0.352,0.212,0.345,0.332,0.319,0.173,0.101,southeast,1.1,No
2017/09/14,14:40,0.349,0.215,0.348,0.327,0.317,0.173,0.099,south-southeast,1.5,No
2017/09/14,14:50,0.347,0.214,0.353,0.326,0.314,0.173,0.099,southeast,1.0,No
2017/09/14,15:00,0.351,0.212,0.350,0.325,0.315,0.174,0.101,south-southeast,1.4,No
2017/09/14,15:10,0.352,0.210,0.347,0.330,0.316,0.173,0.100,east-southeast,0.8,No
2017/09/14,15:20,0.348,0.214,0.348,0.329,0.320,0.172,0.100,east-southeast,1.0,No
2017/09/14,15:30,0.346,0.214,0.352,0.326,0.318,0.173,0.100,north-northeast,0.7,No
2017/09/14,15:40,0.351,0.212,0.350,0.328,0.315,0.174,0.101,-,CALM,No
2017/09/14,15:50,0.350,0.212,0.348,0.330,0.315,0.172,0.100,south-southwest,0.8,No
2017/09/14,16:00,0.347,0.215,0.349,0.327,0.319,0.172,0.100,south-southwest,1.4,No
2017/09/14,16:10,0.350,0.213,0.350,0.325,0.318,0.173,0.100,-,CALM,No
2017/09/14,16:20,0.351,0.212,0.348,0.329,0.316,0.174,0.102,east-southeast,0.8,No
2017/09/14,16:30,0.350,0.215,0.348,0.329,0.315,0.173,0.101,south-southeast,0.8,No
2017/09/14,16:40,0.347,0.215,0.351,0.325,0.320,0.172,0.101,south-southwest,0.8,No
2017/09/14,16:50,0.352,0.213,0.349,0.329,0.318,0.173,0.103,east,1.1,No
2017/09/14,17:00,0.351,0.214,0.347,0.329,0.314,0.172,0.102,northeast,1.2,No
2017/09/14,17:10,0.346,0.215,0.351,0.326,0.316,0.172,0.102,east-southeast,0.5,No
2017/09/14,17:20,0.350,0.213,0.349,0.329,0.318,0.175,0.104,-,CALM,No
2017/09/14,17:30,0.351,0.213,0.350,0.329,0.315,0.173,0.104,north-northeast,1.2,No
2017/09/14,17:40,0.347,0.213,0.351,0.326,0.317,0.173,0.104,north-northeast,2.0,No
2017/09/14,17:50,0.352,0.213,0.350,0.330,0.319,0.174,0.105,north-northeast,1.9,No
2017/09/14,18:00,0.351,0.214,0.350,0.331,0.314,0.173,0.103,north-northeast,2.1,No
2017/09/14,18:10,0.348,0.214,0.351,0.327,0.319,0.173,0.103,north,2.0,No
2017/09/14,18:20,0.351,0.213,0.347,0.330,0.317,0.173,0.103,north,3.5,No
2017/09/14,18:30,0.350,0.213,0.351,0.329,0.315,0.173,0.102,north,4.0,No
2017/09/14,18:40,0.348,0.211,0.350,0.327,0.320,0.174,0.104,north,3.2,No
2017/09/14,18:50,0.351,0.214,0.349,0.331,0.316,0.173,0.104,north,3.4,No
2017/09/14,19:00,0.350,0.214,0.351,0.327,0.316,0.173,0.103,north,4.0,No
2017/09/14,19:10,0.348,0.213,0.349,0.327,0.320,0.175,0.103,north,3.6,No
2017/09/14,19:20,0.351,0.214,0.351,0.330,0.314,0.173,0.104,north,3.8,No
2017/09/14,19:30,0.349,0.213,0.352,0.326,0.319,0.173,0.104,north,4.1,No
2017/09/14,19:40,0.348,0.214,0.348,0.330,0.318,0.174,0.104,north,4.3,No
2017/09/14,19:50,0.350,0.213,0.352,0.328,0.316,0.173,0.104,north,4.3,No
2017/09/14,20:00,0.349,0.214,0.350,0.329,0.319,0.175,0.104,north,4.4,No
2017/09/14,20:10,0.352,0.214,0.350,0.331,0.317,0.173,0.105,north,4.5,No
2017/09/14,20:20,0.349,0.213,0.351,0.327,0.319,0.175,0.104,north,3.3,No
2017/09/14,20:30,0.348,0.215,0.348,0.331,0.318,0.173,0.104,north,2.2,No
2017/09/14,20:40,0.352,0.214,0.353,0.328,0.316,0.173,0.104,north,2.1,No
2017/09/14,20:50,0.348,0.215,0.348,0.329,0.319,0.175,0.105,north-northwest,3.1,No
2017/09/14,21:00,0.351,0.213,0.351,0.330,0.318,0.173,0.104,north,1.6,No
2017/09/14,21:10,0.351,0.216,0.351,0.328,0.317,0.175,0.104,north,2.1,No
2017/09/14,21:20,0.348,0.215,0.348,0.332,0.320,0.174,0.104,north,2.1,No
2017/09/14,21:30,0.353,0.215,0.354,0.329,0.315,0.174,0.104,north,4.7,No
2017/09/14,21:40,0.349,0.215,0.349,0.329,0.320,0.174,0.105,north,6.1,No
2017/09/14,21:50,0.352,0.215,0.352,0.330,0.316,0.172,0.103,north,5.6,No
2017/09/14,22:00,0.350,0.215,0.351,0.328,0.318,0.175,0.105,north,6.2,No
2017/09/14,22:10,0.349,0.214,0.352,0.331,0.316,0.172,0.104,north-northwest,6.5,No
2017/09/14,22:20,0.351,0.215,0.352,0.327,0.318,0.174,0.105,north-northwest,6.4,No
2017/09/14,22:30,0.348,0.214,0.350,0.331,0.318,0.173,0.104,north,6.1,No
2017/09/14,22:40,0.353,0.215,0.352,0.330,0.316,0.174,0.104,north-northwest,6.5,No
2017/09/14,22:50,0.350,0.214,0.350,0.329,0.319,0.174,0.105,north-northwest,7.5,No
2017/09/14,23:00,0.350,0.216,0.353,0.329,0.317,0.173,0.104,north-northwest,7.0,No
2017/09/14,23:10,0.352,0.215,0.351,0.328,0.320,0.175,0.105,north-northwest,6.6,No
2017/09/14,23:20,0.348,0.215,0.351,0.332,0.317,0.174,0.104,north-northwest,6.1,No
2017/09/14,23:30,0.353,0.214,0.352,0.327,0.316,0.173,0.105,north,6.0,No
2017/09/14,23:40,0.350,0.215,0.349,0.331,0.319,0.174,0.104,north-northwest,4.0,No
2017/09/14,23:50,0.351,0.215,0.352,0.329,0.316,0.174,0.103,north,4.2,No
